STARLINK-11267, 60994

Orbit data source: Space-Track

STARLINK-11267, 60994 is a payload satellite owned by SpaceX/Seattle (US) in LEO that was launched on Thu, 05 Sep 2024 UTC via an FALCON 9 launch vehicle from the Air Force Eastern Test Range (AFETR). Payloads include a variety of satellites, spacecraft, and rockets equipped with specific instruments for various scientific and technological missions. These include communications satellites like Starlink; space stations such as the ISS; scientific satellites like the Hubble; Earth observation satellites from companies like Planet Labs, Umbra, and HawkEye 360; GPS; miniature CubeSats for education and research; and military/defense satellites.

Loading next visibility...
STARLINK-11267 details
Identifier
60994, 2024-158E
Orbit
LEO
Last TLE update14 hours ago
Origin
Flag of USSpaceX/Seattle (US)
ManufacturerSpaceX/Seattle
MissionOperational spacecraft
Bus & MotorSTARLINK V2M, Unknown motor
Mass730 kg wet, ~700 kg dry
Launch date (UTC)
2024-09-05 (3 months ago)
Launch vehicle
FALCON 9
Launch site
Air Force Eastern Test Range (AFETR)
Object type
Payload
Rocket body
Debris
Shape & HBRUnknown
Radar Cross SectionLarge (>1 m²)

Expand to show TLE details & history

TLE from 14 hours ago
0 STARLINK-11267
1 60994U 24158E   24336.89688605 -.00000632  00000-0 -33398-6 0  9991
2 60994  53.1563  42.9696 0002774 112.0624 248.0689 15.69712197 14915
Epoch: 2024-12-01T21:31Z
Definitive object data (Epoch: 2024-12-01T21:31:30.954Z)
Latitude-0.00001°
Longitude8.86211°
Altitude361.334 km
Speed7.693 km/s
True Right ascension02h 51m 52s
True Declination0° 00' 00"
Sunlit
Object was in full shadow at TLE epoch
Visualization TLE readout
Latitude50.66667°
Longitude71.37078°
Altitude364.229 km
Speed7.698 km/s
Apparent Right ascension01h 24m 11s
Apparent Declination21° 35' 48"
Sunlit
Object is in full shadow
Visualization observer readout
Local Sidereal Time09:22:24
Azimuth305.482° NW
Elevation-6.635°
Doppler factor1
Orbital elements
Apogee altitude361.851 km
Perigee altitude358.113 km
Semi-major axis6,738.119 km
Eccentricity0.0002774
Inclination53.1563°
RAAN42.9696°
Arg. of periapsis112.0624°
True anomaly248.03942°
Mean anomaly248.0689°
Eccentric anomaly248.05416°
Mean motion3.92406 °/min
BSTAR-3.3398e-7
Orbital period91.74 mins
Loading maneuver chart data...
Loading historical data...
Loading historical data...
Loading historical data...
Loading historical data...
Loading historical data...
Loading historical data...
Loading historical data...

STARLINK-11267 Visibility forecast

Observer location: undefined°, undefined

Span
Click to sort rows by Start time (UTC) header in descending order
Start Az.
Max El. time (UTC)
Max El. Az.
Max El.
End time (UTC)
End Az.
4 mins2024-12-02 13:16:39.276Z345.858° N2024-12-02 13:18:39.276Z43.842° NE21.027°2024-12-02 13:20:39.276Z86.106° E
|